Location: Newark
(50.0306°N, 2.3272°E)
Time: 05:52:46
(UTC+00:00)

Vanguard 1 Rocket - Pass Details

Date: 17 December 2019
Orbit: 650 x 4226 km, 34.3° (Epoch: 26 January)

Event Time Altitude Azimuth Distance (km) Brightness Sun altitude
Rises 22:36:52 0° 265° (W) 7,533 12.3 -60.0°
Reaches altitude 10° 22:43:16 10° 258° (WSW) 5,949 11.6 -60.6°
Enters shadow 22:47:34 18° 250° (WSW) 4,862 11.0 -60.9°
Maximum altitude 22:56:43 33° 204° (SSW) 2,984 - -61.6°
Drops below altitude 10° 23:04:33 10° 144° (SE) 3,426 - -62.1°
Sets 23:07:09 0° 133° (SE) 4,062 - -62.2°
